Location: Nitra
(0.0000°N, 18.0833°E)
Time: 19:14:42
(UTC+02:00)

A-11 Canister half - Pass Details

Date: 07 April 2023
Orbit: 1526 x 1682 km, 47.3° (Epoch: 08 June)

Event Time Altitude Azimuth Distance (km) Brightness Sun altitude
Rises 00:57:53 0° 273° (W) 4,710 - -83.1°
Reaches altitude 10° 01:04:12 10° 242° (WSW) 3,703 - -82.5°
Maximum altitude 01:06:50 11° 225° (SW) 3,588 - -82.1°
Drops below altitude 10° 01:09:29 10° 208° (SSW) 3,693 - -81.8°
Sets 01:15:50 0° 176° (S) 4,677 - -80.8°
